Time,TemperatureF,DewpointF,PressureIn,WindDirection,WindDirectionDegrees,WindSpeedMPH,WindSpeedGustMPH,Humidity,HourlyPrecipIn,Conditions,Clouds,dailyrainin,SoftwareType,DateUTC
2013-06-20 00:01:00,72.4,60.0,30.09,WSW,248,0.4,1.1,65,0.00,,,0.00,WUHU216HW,2013-06-20 05:01:00,
2013-06-20 00:06:00,72.2,59.8,30.09,SSW,203,0.4,0.4,65,0.00,,,0.00,WUHU216HW,2013-06-20 05:06:00,
2013-06-20 00:11:00,72.0,60.0,30.09,SSW,203,1.1,1.1,66,0.00,,,0.00,WUHU216HW,2013-06-20 05:11:00,
2013-06-20 00:16:00,71.8,59.9,30.09,SSW,203,0.9,1.1,66,0.00,,,0.00,WUHU216HW,2013-06-20 05:16:00,
2013-06-20 00:21:00,71.6,59.7,30.09,ENE,68,0.7,0.9,66,0.00,,,0.00,WUHU216HW,2013-06-20 05:21:00,
2013-06-20 00:26:00,71.5,59.5,30.09,ESE,120,0.6,0.7,66,0.00,,,0.00,WUHU216HW,2013-06-20 05:26:00,
2013-06-20 00:31:00,71.3,59.3,30.09,South,180,0.4,0.7,66,0.00,,,0.00,WUHU216HW,2013-06-20 05:31:00,
2013-06-20 00:36:00,71.3,59.3,30.09,East,90,0.2,0.4,66,0.00,,,0.00,WUHU216HW,2013-06-20 05:36:00,
2013-06-20 00:41:00,71.1,59.1,30.08,ENE,68,0.2,0.4,66,0.00,,,0.00,WUHU216HW,2013-06-20 05:41:00,
2013-06-20 00:46:00,70.9,59.0,30.08,NE,45,0.3,0.9,66,0.00,,,0.00,WUHU216HW,2013-06-20 05:46:00,
2013-06-20 00:51:00,70.9,59.4,30.08,NE,45,0.4,1.8,67,0.00,,,0.00,WUHU216HW,2013-06-20 05:51:00,
2013-06-20 00:56:00,70.7,59.2,30.08,SSW,203,1.1,1.8,67,0.00,,,0.00,WUHU216HW,2013-06-20 05:56:00,
2013-06-20 01:01:00,70.7,59.2,30.09,SSW,203,0.4,1.1,67,0.00,,,0.00,WUHU216HW,2013-06-20 06:01:00,
2013-06-20 01:06:00,70.6,59.5,30.09,West,270,0.4,1.1,68,0.00,,,0.00,WUHU216HW,2013-06-20 06:06:00,
2013-06-20 01:11:00,70.6,59.1,30.09,SSW,203,0.4,1.1,67,0.00,,,0.00,WUHU216HW,2013-06-20 06:11:00,
2013-06-20 01:16:00,70.4,59.3,30.09,ENE,68,0.4,0.4,68,0.00,,,0.00,WUHU216HW,2013-06-20 06:16:00,
2013-06-20 01:21:00,70.4,59.3,30.09,NE,45,1.1,1.1,68,0.00,,,0.00,WUHU216HW,2013-06-20 06:21:00,
2013-06-20 01:26:00,70.4,59.7,30.09,NNE,23,0.9,1.8,69,0.00,,,0.00,WUHU216HW,2013-06-20 06:26:00,
2013-06-20 01:31:00,70.2,59.1,30.09,SW,225,0.4,1.8,68,0.00,,,0.00,WUHU216HW,2013-06-20 06:31:00,
2013-06-20 01:36:00,70.2,59.5,30.10,North,0,0.7,0.7,69,0.00,,,0.00,WUHU216HW,2013-06-20 06:36:00,
2013-06-20 01:41:00,70.0,59.3,30.10,NNE,23,0.9,1.3,69,0.00,,,0.00,WUHU216HW,2013-06-20 06:41:00,
2013-06-20 01:46:00,70.0,59.3,30.10,East,90,0.7,1.3,69,0.00,,,0.00,WUHU216HW,2013-06-20 06:46:00,
2013-06-20 01:51:00,70.0,59.8,30.10,ENE,68,0.2,0.9,70,0.00,,,0.00,WUHU216HW,2013-06-20 06:51:00,
2013-06-20 01:56:00,69.8,59.6,30.09,NNE,23,0.0,0.9,70,0.00,,,0.00,WUHU216HW,2013-06-20 06:56:00,
2013-06-20 02:01:00,69.7,59.4,30.09,NNE,23,0.7,0.7,70,0.00,,,0.00,WUHU216HW,2013-06-20 07:01:00,
2013-06-20 02:06:00,69.5,59.2,30.09,North,0,0.0,0.7,70,0.00,,,0.00,WUHU216HW,2013-06-20 07:06:00,
2013-06-20 02:11:00,69.3,59.5,30.09,North,0,0.0,0.2,71,0.00,,,0.00,WUHU216HW,2013-06-20 07:11:00,
2013-06-20 02:16:00,69.1,59.7,30.09,North,0,0.0,0.2,72,0.00,,,0.00,WUHU216HW,2013-06-20 07:16:00,
2013-06-20 02:21:00,68.9,59.1,30.09,ENE,68,0.0,0.2,71,0.00,,,0.00,WUHU216HW,2013-06-20 07:21:00,
2013-06-20 02:26:00,68.8,59.4,30.10,ENE,68,0.4,0.4,72,0.00,,,0.00,WUHU216HW,2013-06-20 07:26:00,
2013-06-20 02:31:00,68.6,59.2,30.10,NE,45,0.0,0.4,72,0.00,,,0.00,WUHU216HW,2013-06-20 07:31:00,
2013-06-20 02:36:00,68.6,59.6,30.10,NE,45,0.0,0.4,73,0.00,,,0.00,WUHU216HW,2013-06-20 07:36:00,
2013-06-20 02:41:00,68.4,59.4,30.10,NE,45,0.0,0.2,73,0.00,,,0.00,WUHU216HW,2013-06-20 07:41:00,
2013-06-20 02:46:00,68.2,59.7,30.10,NE,45,0.0,0.4,74,0.00,,,0.00,WUHU216HW,2013-06-20 07:46:00,
2013-06-20 02:51:00,68.2,59.2,30.10,NE,45,0.0,0.4,73,0.00,,,0.00,WUHU216HW,2013-06-20 07:51:00,
2013-06-20 02:56:00,68.0,59.1,30.10,NE,45,0.0,0.4,73,0.00,,,0.00,WUHU216HW,2013-06-20 07:56:00,
2013-06-20 03:01:00,68.0,59.1,30.10,NE,45,0.0,0.0,73,0.00,,,0.00,WUHU216HW,2013-06-20 08:01:00,
2013-06-20 03:06:00,68.0,59.1,30.10,NE,45,0.0,0.0,73,0.00,,,0.00,WUHU216HW,2013-06-20 08:06:00,
2013-06-20 03:11:00,68.0,59.1,30.10,NE,45,0.0,0.0,73,0.00,,,0.00,WUHU216HW,2013-06-20 08:11:00,
2013-06-20 03:16:00,68.0,59.1,30.10,NE,45,0.0,0.2,73,0.00,,,0.00,WUHU216HW,2013-06-20 08:16:00,
2013-06-20 03:21:00,68.0,59.1,30.10,ENE,68,0.0,0.2,73,0.00,,,0.00,WUHU216HW,2013-06-20 08:21:00,
2013-06-20 03:26:00,68.0,59.5,30.10,ENE,68,0.0,0.0,74,0.00,,,0.00,WUHU216HW,2013-06-20 08:26:00,
2013-06-20 03:31:00,68.0,59.5,30.10,SSW,203,0.0,0.0,74,0.00,,,0.00,WUHU216HW,2013-06-20 08:31:00,
2013-06-20 03:36:00,68.0,59.5,30.10,SSW,203,0.0,0.0,74,0.00,,,0.00,WUHU216HW,2013-06-20 08:36:00,
2013-06-20 03:41:00,68.0,59.5,30.10,SSW,203,0.0,0.0,74,0.00,,,0.00,WUHU216HW,2013-06-20 08:41:00,
2013-06-20 03:46:00,68.0,59.5,30.10,SSE,158,0.0,0.0,74,0.00,,,0.00,WUHU216HW,2013-06-20 08:46:00,
2013-06-20 03:51:00,68.0,59.5,30.10,SSE,158,0.0,0.0,74,0.00,,,0.00,WUHU216HW,2013-06-20 08:51:00,
2013-06-20 03:56:00,68.0,59.5,30.10,SSE,158,0.0,0.0,74,0.00,,,0.00,WUHU216HW,2013-06-20 08:56:00,
2013-06-20 04:01:00,68.0,59.5,30.10,SSE,158,0.0,0.0,74,0.00,,,0.00,WUHU216HW,2013-06-20 09:01:00,
2013-06-20 04:06:00,68.0,59.5,30.10,SE,135,0.0,0.0,74,0.00,,,0.00,WUHU216HW,2013-06-20 09:06:00,
2013-06-20 04:11:00,67.9,59.7,30.11,SE,135,0.0,0.0,75,0.00,,,0.00,WUHU216HW,2013-06-20 09:11:00,
2013-06-20 04:16:00,67.9,59.7,30.10,SE,135,0.0,0.0,75,0.00,,,0.00,WUHU216HW,2013-06-20 09:16:00,
2013-06-20 04:21:00,67.9,59.7,30.10,SSE,158,0.0,0.0,75,0.00,,,0.00,WUHU216HW,2013-06-20 09:21:00,
2013-06-20 04:26:00,67.7,59.9,30.10,SE,135,0.0,0.0,76,0.00,,,0.00,WUHU216HW,2013-06-20 09:26:00,
2013-06-20 04:31:00,67.7,59.9,30.10,SSE,158,0.0,0.0,76,0.00,,,0.00,WUHU216HW,2013-06-20 09:31:00,
2013-06-20 04:36:00,67.7,59.9,30.10,SE,135,0.0,0.0,76,0.00,,,0.00,WUHU216HW,2013-06-20 09:36:00,
2013-06-20 04:41:00,67.5,59.7,30.10,SE,135,0.0,0.0,76,0.00,,,0.00,WUHU216HW,2013-06-20 09:41:00,
2013-06-20 04:46:00,67.3,59.5,30.10,SE,135,0.0,0.0,76,0.00,,,0.00,WUHU216HW,2013-06-20 09:46:00,
2013-06-20 04:51:00,67.3,59.5,30.10,SE,135,0.0,0.0,76,0.00,,,0.00,WUHU216HW,2013-06-20 09:51:00,
2013-06-20 04:56:00,67.1,59.7,30.10,SE,135,0.0,0.0,77,0.00,,,0.00,WUHU216HW,2013-06-20 09:56:00,
2013-06-20 05:01:00,67.0,59.5,30.10,SE,135,0.0,0.0,77,0.00,,,0.00,WUHU216HW,2013-06-20 10:01:00,
2013-06-20 05:06:00,66.8,59.3,30.10,SE,135,0.0,0.0,77,0.00,,,0.00,WUHU216HW,2013-06-20 10:06:00,
2013-06-20 05:11:00,66.6,59.1,30.10,SSE,158,0.0,0.0,77,0.00,,,0.00,WUHU216HW,2013-06-20 10:11:00,
2013-06-20 05:16:00,66.6,59.6,30.10,SSE,158,0.0,0.0,78,0.00,,,0.00,WUHU216HW,2013-06-20 10:16:00,
2013-06-20 05:21:00,66.4,59.8,30.10,SW,225,0.0,0.0,79,0.00,,,0.00,WUHU216HW,2013-06-20 10:21:00,
2013-06-20 05:26:00,66.4,59.8,30.11,SW,225,0.0,0.0,79,0.00,,,0.00,WUHU216HW,2013-06-20 10:26:00,
2013-06-20 05:31:00,66.4,59.8,30.11,SSW,203,0.0,0.0,79,0.00,,,0.00,WUHU216HW,2013-06-20 10:31:00,
2013-06-20 05:36:00,66.4,60.1,30.11,SE,135,0.0,0.0,80,0.00,,,0.00,WUHU216HW,2013-06-20 10:36:00,
2013-06-20 05:41:00,66.4,60.1,30.11,SSW,203,0.0,0.0,80,0.00,,,0.00,WUHU216HW,2013-06-20 10:41:00,
2013-06-20 05:46:00,66.4,60.1,30.11,SW,225,0.0,0.0,80,0.00,,,0.00,WUHU216HW,2013-06-20 10:46:00,
2013-06-20 05:51:00,66.6,60.3,30.11,West,270,0.0,0.0,80,0.00,,,0.00,WUHU216HW,2013-06-20 10:51:00,
2013-06-20 05:56:00,66.6,60.3,30.11,SW,225,0.0,0.0,80,0.00,,,0.00,WUHU216HW,2013-06-20 10:56:00,
2013-06-20 06:01:00,66.8,60.5,30.11,East,90,0.0,0.0,80,0.00,,,0.00,WUHU216HW,2013-06-20 11:01:00,
2013-06-20 06:06:00,67.0,61.0,30.11,SW,225,0.0,0.0,81,0.00,,,0.00,WUHU216HW,2013-06-20 11:06:00,
2013-06-20 06:11:00,67.0,60.7,30.11,SW,225,0.0,0.0,80,0.00,,,0.00,WUHU216HW,2013-06-20 11:11:00,
2013-06-20 06:16:00,67.1,61.2,30.12,SW,225,0.0,0.0,81,0.00,,,0.00,WUHU216HW,2013-06-20 11:16:00,
2013-06-20 06:21:00,67.3,61.4,30.12,SSW,203,0.0,0.0,81,0.00,,,0.00,WUHU216HW,2013-06-20 11:21:00,
2013-06-20 06:26:00,67.3,61.4,30.12,SSW,203,0.0,0.0,81,0.00,,,0.00,WUHU216HW,2013-06-20 11:26:00,
2013-06-20 06:31:00,67.5,61.2,30.12,SSW,203,0.0,0.0,80,0.00,,,0.00,WUHU216HW,2013-06-20 11:31:00,
2013-06-20 06:36:00,67.7,61.8,30.12,SSW,203,0.0,0.0,81,0.00,,,0.00,WUHU216HW,2013-06-20 11:36:00,
2013-06-20 06:41:00,67.7,61.8,30.12,SW,225,0.0,0.0,81,0.00,,,0.00,WUHU216HW,2013-06-20 11:41:00,
2013-06-20 06:46:00,67.9,61.6,30.12,South,180,0.0,0.0,80,0.00,,,0.00,WUHU216HW,2013-06-20 11:46:00,
2013-06-20 06:51:00,68.0,62.1,30.12,SW,225,0.4,0.4,81,0.00,,,0.00,WUHU216HW,2013-06-20 11:51:00,
2013-06-20 06:56:00,68.2,62.2,30.12,SE,135,1.8,1.8,81,0.00,,,0.00,WUHU216HW,2013-06-20 11:56:00,
2013-06-20 07:01:00,68.6,62.6,30.12,SE,135,0.4,2.5,81,0.00,,,0.00,WUHU216HW,2013-06-20 12:01:00,
2013-06-20 07:06:00,69.1,63.1,30.12,ENE,68,0.7,2.5,81,0.00,,,0.00,WUHU216HW,2013-06-20 12:06:00,
2013-06-20 07:11:00,69.8,63.7,30.12,SSW,203,2.2,2.5,81,0.00,,,0.00,WUHU216HW,2013-06-20 12:11:00,
2013-06-20 07:16:00,70.2,63.7,30.12,WSW,248,1.1,2.5,80,0.00,,,0.00,WUHU216HW,2013-06-20 12:16:00,
2013-06-20 07:21:00,70.6,64.1,30.12,South,186,0.8,2.0,80,0.00,,,0.00,WUHU216HW,2013-06-20 12:21:00,
2013-06-20 07:26:00,70.9,64.1,30.13,SSE,158,1.3,2.0,79,0.00,,,0.00,WUHU216HW,2013-06-20 12:26:00,
2013-06-20 07:31:00,71.1,64.3,30.13,SSW,203,0.7,1.3,79,0.00,,,0.00,WUHU216HW,2013-06-20 12:31:00,
2013-06-20 07:36:00,71.6,64.8,30.13,SSW,203,0.9,1.1,79,0.00,,,0.00,WUHU216HW,2013-06-20 12:36:00,
2013-06-20 07:41:00,71.8,64.6,30.13,South,180,0.6,1.6,78,0.00,,,0.00,WUHU216HW,2013-06-20 12:41:00,
2013-06-20 07:46:00,72.0,64.4,30.14,SSW,203,1.1,1.6,77,0.00,,,0.00,WUHU216HW,2013-06-20 12:46:00,
2013-06-20 07:51:00,72.4,64.7,30.14,SSW,203,1.3,1.3,77,0.00,,,0.00,WUHU216HW,2013-06-20 12:51:00,
2013-06-20 07:56:00,72.9,65.7,30.14,SSE,168,1.4,1.6,78,0.00,,,0.00,WUHU216HW,2013-06-20 12:56:00,
2013-06-20 08:01:00,73.6,66.4,30.14,SW,225,2.5,2.5,78,0.00,,,0.00,WUHU216HW,2013-06-20 13:01:00,
2013-06-20 08:06:00,74.2,66.5,30.14,South,180,1.8,2.5,77,0.00,,,0.00,WUHU216HW,2013-06-20 13:06:00,
2013-06-20 08:11:00,74.9,66.9,30.14,SW,229,1.0,2.0,76,0.00,,,0.00,WUHU216HW,2013-06-20 13:11:00,
2013-06-20 08:16:00,75.6,67.2,30.15,SSE,163,1.5,1.6,75,0.00,,,0.00,WUHU216HW,2013-06-20 13:16:00,
2013-06-20 08:21:00,76.1,67.2,30.15,South,189,1.1,1.6,74,0.00,,,0.00,WUHU216HW,2013-06-20 13:21:00,
2013-06-20 08:26:00,76.5,67.6,30.15,SE,135,0.9,2.2,74,0.00,,,0.00,WUHU216HW,2013-06-20 13:26:00,
2013-06-20 08:31:00,77.2,67.5,30.15,South,180,1.8,2.5,72,0.00,,,0.00,WUHU216HW,2013-06-20 13:31:00,
2013-06-20 08:36:00,77.8,67.6,30.15,SSW,203,1.1,2.5,71,0.00,,,0.00,WUHU216HW,2013-06-20 13:36:00,
2013-06-20 08:41:00,78.1,68.0,30.15,South,180,0.9,1.8,71,0.00,,,0.00,WUHU216HW,2013-06-20 13:41:00,
2013-06-20 08:46:00,78.7,67.6,30.15,South,180,2.2,2.7,69,0.00,,,0.00,WUHU216HW,2013-06-20 13:46:00,
2013-06-20 08:51:00,79.0,67.5,30.15,SSW,203,1.3,2.7,68,0.00,,,0.00,WUHU216HW,2013-06-20 13:51:00,
2013-06-20 08:56:00,79.6,68.0,30.15,WSW,248,1.3,4.0,68,0.00,,,0.00,WUHU216HW,2013-06-20 13:56:00,
2013-06-20 09:01:00,80.1,68.1,30.15,South,180,3.8,4.0,67,0.00,,,0.00,WUHU216HW,2013-06-20 14:01:00,
2013-06-20 09:06:00,80.6,68.2,30.15,WSW,248,1.1,3.8,66,0.00,,,0.00,WUHU216HW,2013-06-20 14:06:00,
2013-06-20 09:11:00,81.2,68.2,30.15,SSW,203,1.5,4.7,65,0.00,,,0.00,WUHU216HW,2013-06-20 14:11:00,
2013-06-20 09:16:00,81.5,68.1,30.15,WSW,248,0.9,4.7,64,0.00,,,0.00,WUHU216HW,2013-06-20 14:16:00,
2013-06-20 09:21:00,81.9,68.1,30.15,South,180,2.9,2.9,63,0.00,,,0.00,WUHU216HW,2013-06-20 14:21:00,
2013-06-20 09:26:00,82.3,68.3,30.15,SW,225,3.2,3.6,63,0.00,,,0.00,WUHU216HW,2013-06-20 14:26:00,
2013-06-20 09:32:00,82.4,68.5,30.15,SW,225,3.6,3.6,63,0.00,,,0.00,WUHU216HW,2013-06-20 14:32:00,
2013-06-20 09:37:00,82.8,68.4,30.15,SSW,203,2.7,4.0,62,0.00,,,0.00,WUHU216HW,2013-06-20 14:37:00,
2013-06-20 09:42:00,83.2,69.2,30.15,South,185,1.5,4.0,63,0.00,,,0.00,WUHU216HW,2013-06-20 14:42:00,
2013-06-20 09:47:00,83.3,68.9,30.15,SSW,198,2.3,4.7,62,0.00,,,0.00,WUHU216HW,2013-06-20 14:47:00,
2013-06-20 09:52:00,83.5,69.1,30.15,SSW,209,1.9,4.7,62,0.00,,,0.00,WUHU216HW,2013-06-20 14:52:00,
2013-06-20 09:57:00,83.7,69.3,30.15,South,190,3.1,4.7,62,0.00,,,0.00,WUHU216HW,2013-06-20 14:57:00,
2013-06-20 10:02:00,83.9,69.5,30.15,SSW,203,2.7,4.7,62,0.00,,,0.00,WUHU216HW,2013-06-20 15:02:00,
2013-06-20 10:07:00,84.2,69.4,30.15,WSW,248,1.8,3.4,61,0.00,,,0.00,WUHU216HW,2013-06-20 15:07:00,
2013-06-20 10:12:00,84.2,69.4,30.15,SSW,203,3.4,4.3,61,0.00,,,0.00,WUHU216HW,2013-06-20 15:12:00,
2013-06-20 10:17:00,84.4,69.1,30.15,South,182,2.5,4.3,60,0.00,,,0.00,WUHU216HW,2013-06-20 15:17:00,
2013-06-20 10:22:00,84.4,69.1,30.15,SE,142,1.8,4.3,60,0.00,,,0.00,WUHU216HW,2013-06-20 15:22:00,
2013-06-20 10:27:00,84.4,69.6,30.15,SSW,203,4.9,4.9,61,0.00,,,0.00,WUHU216HW,2013-06-20 15:27:00,
2013-06-20 10:32:00,84.8,69.4,30.15,SSW,203,3.4,4.9,60,0.00,,,0.00,WUHU216HW,2013-06-20 15:32:00,
2013-06-20 10:37:00,84.6,69.3,30.15,SSW,203,4.3,4.3,60,0.00,,,0.00,WUHU216HW,2013-06-20 15:37:00,
2013-06-20 10:42:00,84.6,69.8,30.15,SW,225,2.5,4.3,61,0.00,,,0.00,WUHU216HW,2013-06-20 15:42:00,
2013-06-20 10:47:00,85.0,70.0,30.15,SW,218,1.8,2.5,61,0.00,,,0.00,WUHU216HW,2013-06-20 15:47:00,
2013-06-20 10:52:00,85.3,70.4,30.15,SSW,195,1.5,2.5,61,0.00,,,0.00,WUHU216HW,2013-06-20 15:52:00,
2013-06-20 10:57:00,85.3,69.4,30.15,SSW,193,2.3,4.3,59,0.00,,,0.00,WUHU216HW,2013-06-20 15:57:00,
2013-06-20 11:02:00,85.3,69.4,30.15,SSW,203,1.8,5.4,59,0.00,,,0.00,WUHU216HW,2013-06-20 16:02:00,
2013-06-20 11:07:00,85.1,69.8,30.15,SSW,203,3.6,5.4,60,0.00,,,0.00,WUHU216HW,2013-06-20 16:07:00,
2013-06-20 11:12:00,85.1,69.2,30.14,South,190,2.0,3.6,59,0.00,,,0.00,WUHU216HW,2013-06-20 16:12:00,
2013-06-20 11:17:00,85.3,69.4,30.14,SSW,203,3.2,3.4,59,0.00,,,0.00,WUHU216HW,2013-06-20 16:17:00,
2013-06-20 11:22:00,86.0,70.0,30.14,SSW,194,2.0,3.4,59,0.00,,,0.00,WUHU216HW,2013-06-20 16:22:00,
2013-06-20 11:27:00,86.2,69.2,30.14,SW,218,1.5,3.1,57,0.00,,,0.00,WUHU216HW,2013-06-20 16:27:00,
2013-06-20 11:32:00,85.9,68.3,30.14,SSW,203,1.8,3.8,56,0.00,,,0.00,WUHU216HW,2013-06-20 16:32:00,
2013-06-20 11:37:00,85.1,67.7,30.14,ESE,104,1.0,3.8,56,0.00,,,0.00,WUHU216HW,2013-06-20 16:37:00,
2013-06-20 11:42:00,85.0,68.6,30.14,SSW,203,2.2,3.4,58,0.00,,,0.00,WUHU216HW,2013-06-20 16:42:00,
2013-06-20 11:47:00,84.8,67.9,30.14,SW,231,2.0,3.6,57,0.00,,,0.00,WUHU216HW,2013-06-20 16:47:00,
2013-06-20 11:52:00,85.0,68.6,30.14,SSW,203,1.3,3.6,58,0.00,,,0.00,WUHU216HW,2013-06-20 16:52:00,
2013-06-20 11:57:00,85.9,69.4,30.14,South,181,1.7,2.7,58,0.00,,,0.00,WUHU216HW,2013-06-20 16:57:00,
2013-06-20 12:02:00,86.4,69.3,30.14,SSW,203,2.9,3.4,57,0.00,,,0.00,WUHU216HW,2013-06-20 17:02:00,
2013-06-20 12:07:00,86.2,68.7,30.14,East,85,2.3,3.4,56,0.00,,,0.00,WUHU216HW,2013-06-20 17:07:00,
2013-06-20 12:12:00,86.2,68.7,30.14,South,180,3.4,4.3,56,0.00,,,0.00,WUHU216HW,2013-06-20 17:12:00,
2013-06-20 12:17:00,86.0,68.0,30.14,SW,225,1.8,4.3,55,0.00,,,0.00,WUHU216HW,2013-06-20 17:17:00,
2013-06-20 12:22:00,86.0,68.5,30.13,SE,135,1.8,3.4,56,0.00,,,0.00,WUHU216HW,2013-06-20 17:22:00,
2013-06-20 12:27:00,86.4,68.9,30.13,WSW,248,5.1,5.1,56,0.00,,,0.00,WUHU216HW,2013-06-20 17:27:00,
2013-06-20 12:32:00,86.9,69.3,30.13,SSW,194,4.9,6.0,56,0.00,,,0.00,WUHU216HW,2013-06-20 17:32:00,
2013-06-20 12:37:00,87.3,69.1,30.13,SSW,203,3.4,6.0,55,0.00,,,0.00,WUHU216HW,2013-06-20 17:37:00,
2013-06-20 12:42:00,87.3,68.6,30.13,SSE,158,1.8,3.4,54,0.00,,,0.00,WUHU216HW,2013-06-20 17:42:00,
2013-06-20 12:47:00,87.7,68.9,30.12,SW,225,3.8,3.8,54,0.00,,,0.00,WUHU216HW,2013-06-20 17:47:00,
2013-06-20 12:52:00,88.0,69.3,30.12,SSW,203,4.0,4.0,54,0.00,,,0.00,WUHU216HW,2013-06-20 17:52:00,
2013-06-20 12:57:00,88.4,69.6,30.12,SSW,203,2.5,4.0,54,0.00,,,0.00,WUHU216HW,2013-06-20 17:57:00,
2013-06-20 13:02:00,87.8,68.0,30.13,South,180,3.1,6.3,52,0.00,,,0.00,WUHU216HW,2013-06-20 18:02:00,
2013-06-20 13:07:00,88.2,69.0,30.12,South,180,1.3,6.3,53,0.00,,,0.00,WUHU216HW,2013-06-20 18:07:00,
2013-06-20 13:12:00,88.0,68.2,30.12,SSW,203,3.1,4.0,52,0.00,,,0.00,WUHU216HW,2013-06-20 18:12:00,
2013-06-20 13:17:00,87.7,67.3,30.13,SSE,158,2.9,4.0,51,0.00,,,0.00,WUHU216HW,2013-06-20 18:17:00,
2013-06-20 13:22:00,87.5,68.2,30.13,SSW,195,3.6,4.7,53,0.00,,,0.00,WUHU216HW,2013-06-20 18:22:00,
2013-06-20 13:27:00,87.3,67.1,30.13,South,184,2.3,4.7,51,0.00,,,0.00,WUHU216HW,2013-06-20 18:27:00,
2013-06-20 13:32:00,86.6,66.3,30.13,SSW,203,1.1,4.7,51,0.00,,,0.00,WUHU216HW,2013-06-20 18:32:00,
2013-06-20 13:37:00,87.1,68.0,30.12,SSW,203,3.4,3.4,53,0.00,,,0.00,WUHU216HW,2013-06-20 18:37:00,
2013-06-20 13:42:00,87.7,67.9,30.12,SSW,203,4.0,4.5,52,0.00,,,0.00,WUHU216HW,2013-06-20 18:42:00,
2013-06-20 13:47:00,87.8,68.0,30.12,South,174,1.5,4.7,52,0.00,,,0.00,WUHU216HW,2013-06-20 18:47:00,
2013-06-20 13:52:00,88.4,68.5,30.12,South,180,3.1,5.8,52,0.00,,,0.00,WUHU216HW,2013-06-20 18:52:00,
2013-06-20 13:57:00,88.7,68.3,30.12,SSW,203,2.0,5.8,51,0.00,,,0.00,WUHU216HW,2013-06-20 18:57:00,
2013-06-20 14:02:00,88.6,67.6,30.12,West,270,1.3,2.5,50,0.00,,,0.00,WUHU216HW,2013-06-20 19:02:00,
2013-06-20 14:07:00,88.9,68.5,30.12,SSW,199,3.6,4.7,51,0.00,,,0.00,WUHU216HW,2013-06-20 19:07:00,
2013-06-20 14:12:00,88.9,68.0,30.12,SSW,201,1.9,4.7,50,0.00,,,0.00,WUHU216HW,2013-06-20 19:12:00,
2013-06-20 14:17:00,88.7,67.2,30.12,SSW,203,3.1,3.1,49,0.00,,,0.00,WUHU216HW,2013-06-20 19:17:00,
2013-06-20 14:22:00,89.1,68.1,30.12,SSW,195,1.5,4.7,50,0.00,,,0.00,WUHU216HW,2013-06-20 19:22:00,
2013-06-20 14:27:00,89.5,68.4,30.12,SSW,203,1.1,4.7,50,0.00,,,0.00,WUHU216HW,2013-06-20 19:27:00,
2013-06-20 14:32:00,89.3,67.6,30.12,NE,45,1.8,4.0,49,0.00,,,0.00,WUHU216HW,2013-06-20 19:32:00,
2013-06-20 14:37:00,89.5,67.8,30.12,ESE,120,2.7,4.0,49,0.00,,,0.00,WUHU216HW,2013-06-20 19:37:00,
2013-06-20 14:42:00,89.5,67.8,30.11,South,173,2.6,3.6,49,0.00,,,0.00,WUHU216HW,2013-06-20 19:42:00,
2013-06-20 14:47:00,89.5,67.2,30.11,SSW,204,1.8,4.0,48,0.00,,,0.00,WUHU216HW,2013-06-20 19:47:00,
2013-06-20 14:52:00,89.6,67.3,30.11,SW,225,2.3,4.0,48,0.00,,,0.00,WUHU216HW,2013-06-20 19:52:00,
2013-06-20 14:57:00,89.6,67.3,30.11,SW,217,1.0,3.4,48,0.00,,,0.00,WUHU216HW,2013-06-20 19:57:00,
2013-06-20 15:02:00,89.6,67.3,30.11,NE,45,1.1,2.2,48,0.00,,,0.00,WUHU216HW,2013-06-20 20:02:00,
2013-06-20 15:07:00,89.1,66.2,30.11,SW,225,2.9,2.9,47,0.00,,,0.00,WUHU216HW,2013-06-20 20:07:00,
2013-06-20 15:12:00,89.3,67.0,30.10,SSW,210,2.5,2.9,48,0.00,,,0.00,WUHU216HW,2013-06-20 20:12:00,
2013-06-20 15:17:00,89.3,67.0,30.10,SE,135,1.1,3.6,48,0.00,,,0.00,WUHU216HW,2013-06-20 20:17:00,
2013-06-20 15:22:00,89.6,67.3,30.10,SSW,203,4.5,4.5,48,0.00,,,0.00,WUHU216HW,2013-06-20 20:22:00,
2013-06-20 15:27:00,89.6,66.6,30.10,SSW,203,3.9,4.7,47,0.00,,,0.00,WUHU216HW,2013-06-20 20:27:00,
2013-06-20 15:32:00,89.8,67.4,30.10,SW,225,2.5,4.7,48,0.00,,,0.00,WUHU216HW,2013-06-20 20:32:00,
2013-06-20 15:37:00,90.0,67.6,30.10,SW,225,3.1,3.6,48,0.00,,,0.00,WUHU216HW,2013-06-20 20:37:00,
2013-06-20 15:42:00,90.2,67.2,30.10,SSE,167,3.9,4.3,47,0.00,,,0.00,WUHU216HW,2013-06-20 20:42:00,
2013-06-20 15:47:00,90.4,67.3,30.10,SSW,203,1.1,4.3,47,0.00,,,0.00,WUHU216HW,2013-06-20 20:47:00,
2013-06-20 15:52:00,90.2,66.5,30.10,SSE,156,3.0,3.4,46,0.00,,,0.00,WUHU216HW,2013-06-20 20:52:00,
2013-06-20 15:57:00,89.6,66.6,30.10,WSW,248,2.5,3.4,47,0.00,,,0.00,WUHU216HW,2013-06-20 20:57:00,
2013-06-20 16:02:00,89.3,67.0,30.10,SE,139,3.2,3.4,48,0.00,,,0.00,WUHU216HW,2013-06-20 21:02:00,
2013-06-20 16:07:00,89.5,66.5,30.10,SW,225,1.1,3.4,47,0.00,,,0.00,WUHU216HW,2013-06-20 21:07:00,
2013-06-20 16:12:00,89.5,66.5,30.10,SSW,203,0.8,3.4,47,0.00,,,0.00,WUHU216HW,2013-06-20 21:12:00,
2013-06-20 16:17:00,90.0,67.0,30.10,SSE,158,2.5,3.1,47,0.00,,,0.00,WUHU216HW,2013-06-20 21:17:00,
2013-06-20 16:22:00,89.6,66.0,30.10,South,176,1.4,3.1,46,0.00,,,0.00,WUHU216HW,2013-06-20 21:22:00,
2013-06-20 16:26:00,89.6,66.0,30.10,SSW,203,4.5,4.5,46,0.00,,,0.00,WUHU216HW,2013-06-20 21:26:00,
2013-06-20 16:31:00,89.3,65.1,30.10,SSW,203,1.3,4.5,45,0.00,,,0.00,WUHU216HW,2013-06-20 21:31:00,
2013-06-20 16:36:00,89.1,65.5,30.10,West,270,1.8,3.6,46,0.00,,,0.00,WUHU216HW,2013-06-20 21:36:00,
2013-06-20 16:41:00,89.3,65.7,30.10,SSW,203,2.2,2.2,46,0.00,,,0.00,WUHU216HW,2013-06-20 21:41:00,
2013-06-20 16:46:00,89.6,66.0,30.09,SW,218,3.2,4.3,46,0.00,,,0.00,WUHU216HW,2013-06-20 21:46:00,
2013-06-20 16:51:00,89.5,65.2,30.09,SSE,164,2.9,4.3,45,0.00,,,0.00,WUHU216HW,2013-06-20 21:51:00,
2013-06-20 16:56:00,89.3,65.7,30.09,South,180,2.2,4.0,46,0.00,,,0.00,WUHU216HW,2013-06-20 21:56:00,
2013-06-20 17:01:00,89.5,65.2,30.09,East,90,1.8,4.0,45,0.00,,,0.00,WUHU216HW,2013-06-20 22:01:00,
2013-06-20 17:06:00,89.6,65.3,30.09,NNW,338,0.4,4.7,45,0.00,,,0.00,WUHU216HW,2013-06-20 22:06:00,
2013-06-20 17:11:00,90.7,65.7,30.08,SW,225,0.7,4.7,44,0.00,,,0.00,WUHU216HW,2013-06-20 22:11:00,
2013-06-20 17:16:00,91.3,66.2,30.09,SE,135,2.5,2.5,44,0.00,,,0.00,WUHU216HW,2013-06-20 22:16:00,
2013-06-20 17:21:00,92.3,66.5,30.08,South,180,1.8,2.5,43,0.00,,,0.00,WUHU216HW,2013-06-20 22:21:00,
2013-06-20 17:26:00,92.7,66.2,30.09,SSW,203,2.2,2.5,42,0.00,,,0.00,WUHU216HW,2013-06-20 22:26:00,
2013-06-20 17:31:00,92.7,65.5,30.08,SSW,203,1.7,2.5,41,0.00,,,0.00,WUHU216HW,2013-06-20 22:31:00,
2013-06-20 17:36:00,93.1,66.5,30.08,SSW,203,1.8,1.8,42,0.00,,,0.00,WUHU216HW,2013-06-20 22:36:00,
2013-06-20 17:41:00,93.2,66.6,30.09,SSW,203,1.1,2.5,42,0.00,,,0.00,WUHU216HW,2013-06-20 22:41:00,
2013-06-20 17:46:00,93.6,67.0,30.08,ENE,68,0.9,2.5,42,0.00,,,0.00,WUHU216HW,2013-06-20 22:46:00,
2013-06-20 17:51:00,93.4,65.5,30.08,South,180,1.1,4.0,40,0.00,,,0.00,WUHU216HW,2013-06-20 22:51:00,
2013-06-20 17:56:00,93.6,67.0,30.08,SSW,203,1.8,4.0,42,0.00,,,0.00,WUHU216HW,2013-06-20 22:56:00,
2013-06-20 18:01:00,93.8,67.2,30.08,West,270,4.7,4.7,42,0.00,,,0.00,WUHU216HW,2013-06-20 23:01:00,
2013-06-20 18:06:00,94.0,67.3,30.08,SW,225,2.0,4.7,42,0.00,,,0.00,WUHU216HW,2013-06-20 23:06:00,
2013-06-20 18:11:00,93.8,67.2,30.09,SSW,203,3.1,3.1,42,0.00,,,0.00,WUHU216HW,2013-06-20 23:11:00,
2013-06-20 18:16:00,92.9,66.3,30.08,SE,135,3.4,4.3,42,0.00,,,0.00,WUHU216HW,2013-06-20 23:16:00,
2013-06-20 18:21:00,92.2,66.3,30.08,ESE,113,2.5,4.3,43,0.00,,,0.00,WUHU216HW,2013-06-20 23:21:00,
2013-06-20 18:26:00,91.4,65.7,30.08,SW,225,1.8,4.0,43,0.00,,,0.00,WUHU216HW,2013-06-20 23:26:00,
2013-06-20 18:31:00,91.4,66.3,30.09,SSW,203,2.9,4.0,44,0.00,,,0.00,WUHU216HW,2013-06-20 23:31:00,
2013-06-20 18:36:00,90.7,65.7,30.09,SSW,203,3.1,3.1,44,0.00,,,0.00,WUHU216HW,2013-06-20 23:36:00,
2013-06-20 18:41:00,90.0,65.7,30.08,SSE,166,1.2,3.1,45,0.00,,,0.00,WUHU216HW,2013-06-20 23:41:00,
2013-06-20 18:46:00,90.0,66.3,30.09,SE,135,0.9,2.5,46,0.00,,,0.00,WUHU216HW,2013-06-20 23:46:00,
2013-06-20 18:51:00,90.4,66.6,30.09,SSW,203,1.1,2.5,46,0.00,,,0.00,WUHU216HW,2013-06-20 23:51:00,
2013-06-20 18:56:00,90.5,66.2,30.09,West,270,0.4,2.0,45,0.00,,,0.00,WUHU216HW,2013-06-20 23:56:00,
2013-06-20 19:01:00,90.7,66.3,30.09,SSW,194,0.9,1.8,45,0.00,,,0.00,WUHU216HW,2013-06-21 00:01:00,
2013-06-20 19:06:00,90.7,66.3,30.09,SW,217,1.5,2.7,45,0.00,,,0.00,WUHU216HW,2013-06-21 00:06:00,
2013-06-20 19:11:00,90.7,66.3,30.09,ESE,113,0.9,2.7,45,0.00,,,0.00,WUHU216HW,2013-06-21 00:11:00,
2013-06-20 19:16:00,90.4,66.0,30.09,SSW,203,2.5,2.5,45,0.00,,,0.00,WUHU216HW,2013-06-21 00:16:00,
2013-06-20 19:21:00,90.4,66.6,30.09,ESE,106,0.4,2.5,46,0.00,,,0.00,WUHU216HW,2013-06-21 00:21:00,
2013-06-20 19:26:00,90.4,66.6,30.09,SSW,196,1.3,1.8,46,0.00,,,0.00,WUHU216HW,2013-06-21 00:26:00,
2013-06-20 19:31:00,90.2,66.5,30.09,SE,135,1.6,1.8,46,0.00,,,0.00,WUHU216HW,2013-06-21 00:31:00,
2013-06-20 19:36:00,89.5,65.8,30.09,SSW,203,1.3,1.6,46,0.00,,,0.00,WUHU216HW,2013-06-21 00:36:00,
2013-06-20 19:41:00,88.7,65.9,30.09,SE,135,1.6,1.6,47,0.00,,,0.00,WUHU216HW,2013-06-21 00:41:00,
2013-06-20 19:46:00,88.2,65.3,30.09,SSW,203,0.9,1.8,47,0.00,,,0.00,WUHU216HW,2013-06-21 00:46:00,
2013-06-20 19:51:00,87.5,65.3,30.09,SSW,203,1.1,1.8,48,0.00,,,0.00,WUHU216HW,2013-06-21 00:51:00,
2013-06-20 19:56:00,86.8,65.3,30.09,SE,134,0.6,1.6,49,0.00,,,0.00,WUHU216HW,2013-06-21 00:56:00,
2013-06-20 20:01:00,86.2,64.9,30.09,SSW,203,0.7,1.1,49,0.00,,,0.00,WUHU216HW,2013-06-21 01:01:00,
2013-06-20 20:06:00,85.3,64.7,30.09,SE,135,1.1,1.1,50,0.00,,,0.00,WUHU216HW,2013-06-21 01:06:00,
2013-06-20 20:11:00,85.1,64.5,30.09,WSW,248,0.4,1.1,50,0.00,,,0.00,WUHU216HW,2013-06-21 01:11:00,
2013-06-20 20:16:00,84.2,63.7,30.09,SSE,158,1.1,1.6,50,0.00,,,0.00,WUHU216HW,2013-06-21 01:16:00,
2013-06-20 20:21:00,83.9,63.9,30.09,SE,135,0.9,1.6,51,0.00,,,0.00,WUHU216HW,2013-06-21 01:21:00,
2013-06-20 20:26:00,83.3,63.4,30.08,SSE,158,1.1,1.1,51,0.00,,,0.00,WUHU216HW,2013-06-21 01:26:00,
2013-06-20 20:31:00,82.8,63.4,30.08,SE,135,0.4,1.1,52,0.00,,,0.00,WUHU216HW,2013-06-21 01:31:00,
2013-06-20 20:36:00,82.4,63.5,30.08,SE,135,0.7,0.7,53,0.00,,,0.00,WUHU216HW,2013-06-21 01:36:00,
2013-06-20 20:41:00,81.9,63.0,30.09,South,180,0.2,0.9,53,0.00,,,0.00,WUHU216HW,2013-06-21 01:41:00,
2013-06-20 20:46:00,81.4,63.0,30.09,SSE,158,0.2,1.3,54,0.00,,,0.00,WUHU216HW,2013-06-21 01:46:00,
2013-06-20 20:51:00,81.0,63.3,30.09,South,180,0.4,2.5,55,0.00,,,0.00,WUHU216HW,2013-06-21 01:51:00,
2013-06-20 20:56:00,80.6,62.9,30.09,SSW,203,0.9,2.5,55,0.00,,,0.00,WUHU216HW,2013-06-21 01:56:00,
2013-06-20 21:01:00,80.3,62.6,30.09,SE,135,0.6,1.8,55,0.00,,,0.00,WUHU216HW,2013-06-21 02:01:00,
2013-06-20 21:06:00,79.9,62.8,30.09,South,180,0.4,1.8,56,0.00,,,0.00,WUHU216HW,2013-06-21 02:06:00,
2013-06-20 21:11:00,79.6,62.5,30.09,SE,139,1.1,1.8,56,0.00,,,0.00,WUHU216HW,2013-06-21 02:11:00,
2013-06-20 21:16:00,79.4,62.8,30.09,ESE,113,0.4,1.8,57,0.00,,,0.00,WUHU216HW,2013-06-21 02:16:00,
2013-06-20 21:21:00,79.0,62.5,30.10,SW,225,0.2,1.3,57,0.00,,,0.00,WUHU216HW,2013-06-21 02:21:00,
2013-06-20 21:26:00,78.7,62.6,30.10,SE,135,0.0,0.4,58,0.00,,,0.00,WUHU216HW,2013-06-21 02:26:00,
2013-06-20 21:31:00,78.5,62.5,30.10,SSW,203,0.4,0.4,58,0.00,,,0.00,WUHU216HW,2013-06-21 02:31:00,
2013-06-20 21:36:00,78.1,62.6,30.10,SE,135,1.3,1.3,59,0.00,,,0.00,WUHU216HW,2013-06-21 02:36:00,
2013-06-20 21:41:00,77.9,62.5,30.11,SE,135,0.0,1.3,59,0.00,,,0.00,WUHU216HW,2013-06-21 02:41:00,
2013-06-20 21:46:00,77.8,62.8,30.11,SE,135,1.1,1.1,60,0.00,,,0.00,WUHU216HW,2013-06-21 02:46:00,
2013-06-20 21:51:00,77.4,62.5,30.11,East,90,0.2,1.1,60,0.00,,,0.00,WUHU216HW,2013-06-21 02:51:00,
2013-06-20 21:56:00,77.2,62.3,30.11,East,90,0.7,0.7,60,0.00,,,0.00,WUHU216HW,2013-06-21 02:56:00,
2013-06-20 22:01:00,76.9,62.4,30.11,East,90,0.0,0.7,61,0.00,,,0.00,WUHU216HW,2013-06-21 03:01:00,
2013-06-20 22:06:00,76.7,62.2,30.11,SE,135,0.0,0.0,61,0.00,,,0.00,WUHU216HW,2013-06-21 03:06:00,
2013-06-20 22:11:00,76.5,62.5,30.11,SE,135,0.0,0.0,62,0.00,,,0.00,WUHU216HW,2013-06-21 03:11:00,
2013-06-20 22:16:00,76.1,62.2,30.11,SE,135,0.0,0.0,62,0.00,,,0.00,WUHU216HW,2013-06-21 03:16:00,
2013-06-20 22:21:00,76.0,62.5,30.11,SE,135,0.0,0.0,63,0.00,,,0.00,WUHU216HW,2013-06-21 03:21:00,
2013-06-20 22:26:00,75.8,62.3,30.12,SE,135,0.0,0.0,63,0.00,,,0.00,WUHU216HW,2013-06-21 03:26:00,
2013-06-20 22:31:00,75.6,62.6,30.11,SE,135,0.0,0.0,64,0.00,,,0.00,WUHU216HW,2013-06-21 03:31:00,
2013-06-20 22:36:00,75.4,62.4,30.12,WSW,248,0.0,0.0,64,0.00,,,0.00,WUHU216HW,2013-06-21 03:36:00,
2013-06-20 22:41:00,75.2,62.6,30.12,SE,135,0.0,0.0,65,0.00,,,0.00,WUHU216HW,2013-06-21 03:41:00,
2013-06-20 22:46:00,75.1,62.5,30.12,SE,135,0.0,0.9,65,0.00,,,0.00,WUHU216HW,2013-06-21 03:46:00,
2013-06-20 22:51:00,74.9,62.3,30.12,SE,135,0.0,0.9,65,0.00,,,0.00,WUHU216HW,2013-06-21 03:51:00,
2013-06-20 22:56:00,74.7,62.6,30.12,ESE,113,0.0,0.0,66,0.00,,,0.00,WUHU216HW,2013-06-21 03:56:00,
2013-06-20 23:01:00,74.5,62.4,30.12,ESE,113,0.0,0.0,66,0.00,,,0.00,WUHU216HW,2013-06-21 04:01:00,
2013-06-20 23:06:00,74.3,62.2,30.12,ESE,113,0.0,0.0,66,0.00,,,0.00,WUHU216HW,2013-06-21 04:06:00,
2013-06-20 23:11:00,74.2,62.1,30.12,ESE,113,0.0,0.0,66,0.00,,,0.00,WUHU216HW,2013-06-21 04:11:00,
2013-06-20 23:16:00,73.8,62.2,30.12,ESE,113,0.4,0.4,67,0.00,,,0.00,WUHU216HW,2013-06-21 04:16:00,
2013-06-20 23:21:00,73.8,62.2,30.12,SE,135,0.0,0.4,67,0.00,,,0.00,WUHU216HW,2013-06-21 04:21:00,
2013-06-20 23:26:00,73.6,62.5,30.12,SW,225,0.2,0.4,68,0.00,,,0.00,WUHU216HW,2013-06-21 04:26:00,
2013-06-20 23:31:00,73.4,62.3,30.12,SSE,158,0.0,0.2,68,0.00,,,0.00,WUHU216HW,2013-06-21 04:31:00,
2013-06-20 23:36:00,73.3,62.1,30.12,ESE,113,0.4,0.4,68,0.00,,,0.00,WUHU216HW,2013-06-21 04:36:00,
2013-06-20 23:41:00,73.1,62.4,30.12,SE,135,0.4,0.4,69,0.00,,,0.00,WUHU216HW,2013-06-21 04:41:00,
2013-06-20 23:46:00,73.1,62.4,30.12,ESE,113,0.2,0.4,69,0.00,,,0.00,WUHU216HW,2013-06-21 04:46:00,
2013-06-20 23:51:00,72.9,62.2,30.12,SE,135,0.0,0.4,69,0.00,,,0.00,WUHU216HW,2013-06-21 04:51:00,
2013-06-20 23:56:00,72.7,62.5,30.12,SE,135,0.0,0.4,70,0.00,,,0.00,WUHU216HW,2013-06-21 04:56:00,